• In Uzbekistan
  • List of Countries
  • For 7 days
  • Water Temperature
  • Satellite Maps
  • Weather Map
  • Weather Widgets
  • user-avatar
    Login

    Hourly Weather Larisa

    Today, 15 December, Friday

    Time Temperature Precipitation Wind Pressure Humidity
    00:00 +10°C° 0 mm 2 mps 754 mmHg 71%
    01:00 +11°C° 0 mm 3 mps 754 mmHg 71%
    02:00 +10°C° 0 mm 3 mps 754 mmHg 73%
    03:00 +10°C° 0 mm 2 mps 754 mmHg 74%
    04:00 +10°C° 0 mm 2 mps 754 mmHg 76%
    05:00 +10°C° 0 mm 2 mps 754 mmHg 77%
    06:00 +10°C° 0 mm 2 mps 754 mmHg 78%
    07:00 +10°C° 0 mm 2 mps 754 mmHg 78%
    08:00 +12°C° 0 mm 2 mps 754 mmHg 73%
    09:00 +14°C° 0 mm 2 mps 754 mmHg 68%
    10:00 +15°C° 0 mm 1 mps 754 mmHg 62%
    11:00 +16°C° 0 mm 2 mps 753 mmHg 59%
    12:00 +17°C° 0 mm 2 mps 753 mmHg 57%
    13:00 +18°C° 0 mm 2 mps 753 mmHg 54%
    14:00 +17°C° 0 mm 2 mps 752 mmHg 57%
    15:00 +16°C° 0 mm 2 mps 752 mmHg 61%
    16:00 +15°C° 0 mm 2 mps 752 mmHg 64%
    17:00 +15°C° 0 mm 2 mps 752 mmHg 66%
    18:00 +14°C° 0 mm 2 mps 752 mmHg 68%
    19:00 +14°C° 0 mm 2 mps 752 mmHg 69%
    20:00 +13°C° 0 mm 2 mps 752 mmHg 71%
    21:00 +13°C° 0 mm 2 mps 752 mmHg 73%
    22:00 +13°C° 0 mm 2 mps 752 mmHg 74%
    23:00 +13°C° 0 mm 2 mps 752 mmHg 75%

    Tomorrow, 16 December, Saturday

    Time Temperature Precipitation Wind Pressure Humidity
    00:00 +12°C° 0 mm 3 mps 752 mmHg 76%
    01:00 +12°C° 0 mm 3 mps 752 mmHg 77%
    02:00 +12°C° 0 mm 3 mps 751 mmHg 79%
    03:00 +12°C° 0 mm 3 mps 751 mmHg 81%
    04:00 +12°C° 0 mm 3 mps 751 mmHg 82%
    05:00 +11°C° 0 mm 3 mps 751 mmHg 84%
    06:00 +11°C° 0 mm 3 mps 751 mmHg 85%
    07:00 +11°C° 0 mm 3 mps 751 mmHg 87%
    08:00 +12°C° 0 mm 3 mps 751 mmHg 80%
    09:00 +14°C° 0 mm 3 mps 751 mmHg 73%
    10:00 +17°C° 0 mm 3 mps 751 mmHg 66%
    11:00 +17°C° 0 mm 3 mps 750 mmHg 63%
    12:00 +18°C° 0 mm 3 mps 750 mmHg 60%
    13:00 +19°C° 0 mm 3 mps 749 mmHg 56%
    14:00 +18°C° 0.2 mm 3 mps 749 mmHg 62%
    15:00 +17°C° 0.2 mm 2 mps 748 mmHg 67%
    16:00 +16°C° 0.2 mm 2 mps 748 mmHg 73%
    17:00 +15°C° 0.5 mm 2 mps 748 mmHg 76%
    18:00 +15°C° 0.5 mm 2 mps 748 mmHg 78%
    19:00 +15°C° 0.5 mm 1 mps 748 mmHg 81%
    20:00 +14°C° 0.1 mm 2 mps 748 mmHg 83%
    21:00 +14°C° 0.1 mm 2 mps 748 mmHg 84%
    22:00 +13°C° 0.1 mm 2 mps 748 mmHg 85%
    23:00 +13°C° 0 mm 2 mps 748 mmHg 85%

    Day after tomorrow, 17 December, Sunday

    Time Temperature Precipitation Wind Pressure Humidity
    00:00 +13°C° 0 mm 2 mps 748 mmHg 86%
    01:00 +12°C° 0 mm 2 mps 748 mmHg 86%
    02:00 +12°C° 0 mm 2 mps 748 mmHg 85%
    03:00 +12°C° 0 mm 2 mps 748 mmHg 85%
    04:00 +12°C° 0 mm 2 mps 748 mmHg 84%
    05:00 +12°C° 0.1 mm 2 mps 748 mmHg 84%
    06:00 +12°C° 0.1 mm 2 mps 749 mmHg 84%
    07:00 +12°C° 0.1 mm 2 mps 749 mmHg 84%
    08:00 +13°C° 0.2 mm 2 mps 749 mmHg 77%
    09:00 +14°C° 0.2 mm 2 mps 750 mmHg 70%
    10:00 +14°C° 0.2 mm 3 mps 750 mmHg 63%
    11:00 +16°C° 0.2 mm 3 mps 750 mmHg 57%
    12:00 +16°C° 0.2 mm 3 mps 750 mmHg 50%
    13:00 +15°C° 0.2 mm 4 mps 750 mmHg 44%
    14:00 +14°C° 0.1 mm 3 mps 751 mmHg 47%
    15:00 +13°C° 0.1 mm 3 mps 751 mmHg 50%
    16:00 +12°C° 0.1 mm 3 mps 751 mmHg 53%
    17:00 +11°C° 0 mm 3 mps 752 mmHg 57%
    18:00 +11°C° 0 mm 3 mps 753 mmHg 60%
    19:00 +10°C° 0 mm 3 mps 754 mmHg 63%
    20:00 +9°C° 0 mm 3 mps 754 mmHg 66%
    21:00 +9°C° 0 mm 2 mps 755 mmHg 68%
    22:00 +8°C° 0 mm 2 mps 756 mmHg 70%
    23:00 +8°C° 0 mm 2 mps 756 mmHg 71%

    18 December, Monday

    Time Temperature Precipitation Wind Pressure Humidity
    00:00 +7°C° 0 mm 2 mps 756 mmHg 72%
    01:00 +7°C° 0 mm 2 mps 757 mmHg 73%
    02:00 +7°C° 0 mm 2 mps 757 mmHg 73%
    03:00 +6°C° 0 mm 2 mps 757 mmHg 74%
    04:00 +6°C° 0 mm 2 mps 757 mmHg 75%
    05:00 +6°C° 0 mm 2 mps 757 mmHg 75%
    06:00 +6°C° 0 mm 2 mps 758 mmHg 75%
    07:00 +5°C° 0 mm 2 mps 758 mmHg 75%
    08:00 +5°C° 0 mm 3 mps 758 mmHg 70%
    09:00 +8°C° 0 mm 3 mps 758 mmHg 65%
    10:00 +9°C° 0 mm 3 mps 759 mmHg 60%
    11:00 +9°C° 0 mm 3 mps 758 mmHg 59%
    12:00 +9°C° 0 mm 3 mps 758 mmHg 58%
    13:00 +10°C° 0 mm 3 mps 757 mmHg 56%
    14:00 +9°C° 0.1 mm 3 mps 757 mmHg 59%
    15:00 +8°C° 0.1 mm 3 mps 758 mmHg 62%
    16:00 +8°C° 0.1 mm 3 mps 758 mmHg 65%
    17:00 +7°C° 0 mm 3 mps 758 mmHg 67%
    18:00 +6°C° 0 mm 2 mps 758 mmHg 69%
    19:00 +6°C° 0 mm 2 mps 759 mmHg 71%
    20:00 +6°C° 0 mm 2 mps 759 mmHg 71%
    21:00 +5°C° 0 mm 2 mps 760 mmHg 71%
    22:00 +5°C° 0 mm 2 mps 760 mmHg 71%
    23:00 +5°C° 0 mm 2 mps 760 mmHg 71%

    19 December, Tuesday

    Time Temperature Precipitation Wind Pressure Humidity
    00:00 +4°C° 0 mm 2 mps 760 mmHg 71%
    01:00 +4°C° 0 mm 2 mps 760 mmHg 71%
    02:00 +4°C° 0 mm 2 mps 761 mmHg 71%
    03:00 +4°C° 0 mm 2 mps 761 mmHg 70%
    04:00 +4°C° 0 mm 2 mps 761 mmHg 70%
    05:00 +3°C° 0 mm 2 mps 762 mmHg 70%
    06:00 +3°C° 0 mm 2 mps 762 mmHg 70%
    07:00 +4°C° 0 mm 1 mps 763 mmHg 69%
    08:00 +4°C° 0 mm 2 mps 763 mmHg 64%
    09:00 +6°C° 0 mm 2 mps 763 mmHg 59%
    10:00 +7°C° 0 mm 2 mps 763 mmHg 54%
    11:00 +7°C° 0 mm 2 mps 763 mmHg 52%
    12:00 +8°C° 0 mm 2 mps 763 mmHg 50%
    13:00 +8°C° 0 mm 2 mps 762 mmHg 48%
    14:00 +9°C° 0 mm 1 mps 762 mmHg 50%
    15:00 +8°C° 0 mm 1 mps 762 mmHg 53%
    16:00 +7°C° 0 mm 1 mps 762 mmHg 55%
    17:00 +7°C° 0 mm 1 mps 763 mmHg 56%
    18:00 +6°C° 0 mm 1 mps 763 mmHg 57%
    19:00 +6°C° 0 mm 1 mps 763 mmHg 58%
    20:00 +6°C° 0 mm 1 mps 763 mmHg 58%
    21:00 +6°C° 0 mm 1 mps 763 mmHg 58%
    22:00 +6°C° 0 mm 1 mps 763 mmHg 58%
    23:00 +5°C° 0 mm 1 mps 763 mmHg 59%

    20 December, Wednesday

    Time Temperature Precipitation Wind Pressure Humidity
    00:00 +5°C° 0 mm 1 mps 763 mmHg 59%
    01:00 +5°C° 0 mm 1 mps 763 mmHg 60%
    02:00 +4°C° 0 mm 2 mps 763 mmHg 60%
    03:00 +4°C° 0 mm 2 mps 763 mmHg 61%
    04:00 +3°C° 0 mm 2 mps 762 mmHg 61%
    05:00 +3°C° 0 mm 2 mps 763 mmHg 62%
    06:00 +3°C° 0 mm 2 mps 763 mmHg 62%
    07:00 +4°C° 0 mm 1 mps 763 mmHg 63%
    08:00 +4°C° 0 mm 2 mps 763 mmHg 59%
    09:00 +5°C° 0 mm 2 mps 763 mmHg 55%
    10:00 +6°C° 0 mm 2 mps 763 mmHg 51%
    11:00 +7°C° 0.1 mm 2 mps 763 mmHg 51%
    12:00 +7°C° 0.1 mm 2 mps 762 mmHg 51%
    13:00 +7°C° 0.1 mm 2 mps 762 mmHg 51%
    14:00 +7°C° 0.1 mm 2 mps 762 mmHg 54%
    15:00 +6°C° 0.1 mm 2 mps 762 mmHg 58%
    16:00 +6°C° 0.1 mm 2 mps 762 mmHg 61%
    17:00 +6°C° 0.1 mm 2 mps 762 mmHg 62%
    18:00 +6°C° 0.1 mm 2 mps 763 mmHg 63%
    19:00 +5°C° 0.1 mm 2 mps 763 mmHg 64%
    20:00 +5°C° 0.1 mm 2 mps 763 mmHg 65%
    21:00 +5°C° 0.1 mm 2 mps 763 mmHg 66%
    22:00 +4°C° 0.1 mm 3 mps 764 mmHg 67%
    23:00 +4°C° 0.1 mm 3 mps 763 mmHg 68%
    Show more